Satellite: SO-50
Catalog number: 27607
Epoch time:      12172.76966482
Element set:    0793
Inclination:      064.5591 deg
RA of node:       284.0007 deg
Eccentricity:    0.0082731
Arg of perigee:   247.7761 deg
Mean anomaly:     111.4524 deg
Mean motion:   14.72408277 rev/day
Decay rate:       7.73e-06 rev/day^2
Epoch rev:           51049
Checksum:              319

Satellite: CO-55
Catalog number: 27844
Epoch time:      12172.51268694
Element set:    0401
Inclination:      098.7006 deg
RA of node:       180.8442 deg
Eccentricity:    0.0009265
Arg of perigee:   208.8819 deg
Mean anomaly:     151.1842 deg
Mean motion:   14.21031565 rev/day
Decay rate:       -1.0e-07 rev/day^2
Epoch rev:           46536
Checksum:              296

Satellite: CO-57
Catalog number: 27848
Epoch time:      12172.58733806
Element set:     350
Inclination:      098.7109 deg
RA of node:       180.2544 deg
Eccentricity:    0.0008756
Arg of perigee:   214.3669 deg
Mean anomaly:     145.6989 deg
Mean motion:   14.20781516 rev/day
Decay rate:      -1.58e-06 rev/day^2
Epoch rev:           46531
Checksum:              338

Satellite: AO-51
Catalog number: 28375
Epoch time:      12172.41332020
Element set:    0298
Inclination:      098.1479 deg
RA of node:       137.5390 deg
Eccentricity:    0.0084726
Arg of perigee:   031.4738 deg
Mean anomaly:     329.1483 deg
Mean motion:   14.40956006 rev/day
Decay rate:       2.23e-06 rev/day^2
Epoch rev:           41923
Checksum:              298

Satellite: CP3
Catalog number: 31129
Epoch time:      12172.04375616
Element set:    0195
Inclination:      097.8816 deg
RA of node:       179.6508 deg
Eccentricity:    0.0102067
Arg of perigee:   114.0679 deg
Mean anomaly:     247.1251 deg
Mean motion:   14.53088718 rev/day
Decay rate:       8.46e-06 rev/day^2
Epoch rev:           27439
Checksum:              317

Satellite: CO-65
Catalog number: 32785
Epoch time:      12173.63020732
Element set:     340
Inclination:      097.8005 deg
RA of node:       234.5772 deg
Eccentricity:    0.0015661
Arg of perigee:   050.4757 deg
Mean anomaly:     309.7791 deg
Mean motion:   14.83011576 rev/day
Decay rate:      1.086e-05 rev/day^2
Epoch rev:           22442
Checksum:              296

Satellite: PRISM
Catalog number: 33493
Epoch time:      12173.71087678
Element set:     809
Inclination:      098.1711 deg
RA of node:       314.3803 deg
Eccentricity:    0.0017480
Arg of perigee:   283.1391 deg
Mean anomaly:     076.7877 deg
Mean motion:   14.83928293 rev/day
Decay rate:      2.398e-05 rev/day^2
Epoch rev:           18442
Checksum:              333

Satellite: SOHLA-1
Catalog number: 33496
Epoch time:      12172.84840839
Element set:    0762
Inclination:      098.1044 deg
RA of node:       284.5593 deg
Eccentricity:    0.0007297
Arg of perigee:   036.2252 deg
Mean anomaly:     323.9435 deg
Mean motion:   14.69981317 rev/day
Decay rate:       3.57e-06 rev/day^2
Epoch rev:           18278
Checksum:              334

Satellite: SO-67
Catalog number: 35870
Epoch time:      12173.78316228
Element set:      69
Inclination:      097.2323 deg
RA of node:       209.3684 deg
Eccentricity:    0.0003156
Arg of perigee:   126.3149 deg
Mean anomaly:     358.6434 deg
Mean motion:   15.23884645 rev/day
Decay rate:      4.268e-05 rev/day^2
Epoch rev:           15331
Checksum:              322

Satellite: TISAT-1
Catalog number: 36799
Epoch time:      12173.72953181
Element set:      85
Inclination:      098.0626 deg
RA of node:       250.0979 deg
Eccentricity:    0.0015457
Arg of perigee:   153.4088 deg
Mean anomaly:     206.7916 deg
Mean motion:   14.81985112 rev/day
Decay rate:      1.784e-05 rev/day^2
Epoch rev:           10516
Checksum:              325

Satellite: STUDSAT
Catalog number: 36801
Epoch time:      12173.85795905
Element set:     417
Inclination:      098.0727 deg
RA of node:       250.9606 deg
Eccentricity:    0.0013555
Arg of perigee:   140.1084 deg
Mean anomaly:     220.1127 deg
Mean motion:   14.84384620 rev/day
Decay rate:      4.619e-05 rev/day^2
Epoch rev:           10521
Checksum:              282

Satellite: FO-69
Catalog number: 37227
Epoch time:      12172.42492825
Element set:    0212
Inclination:      071.9703 deg
RA of node:       304.8102 deg
Eccentricity:    0.0018015
Arg of perigee:   311.7487 deg
Mean anomaly:     048.2086 deg
Mean motion:   14.77089018 rev/day
Decay rate:       2.81e-06 rev/day^2
Epoch rev:           03657
Checksum:              296

Satellite: FO-70
Catalog number: 37380
Epoch time:      12172.43102687
Element set:    0217
Inclination:      071.9742 deg
RA of node:       305.3611 deg
Eccentricity:    0.0018524
Arg of perigee:   308.1831 deg
Mean anomaly:     051.7601 deg
Mean motion:   14.76839861 rev/day
Decay rate:        5.1e-07 rev/day^2
Epoch rev:           03646
Checksum:              284

Satellite: ALMASAT-1
Catalog number: 38078
Epoch time:      12173.80146932
Element set:     318
Inclination:      069.4956 deg
RA of node:       306.8093 deg
Eccentricity:    0.0759597
Arg of perigee:   242.9504 deg
Mean anomaly:     109.2063 deg
Mean motion:   14.09308119 rev/day
Decay rate:     1.2118e-04 rev/day^2
Epoch rev:            1820
Checksum:              311

